| time (UTC) | temp F | wind direction | speed knots | gust knots | rain 1hr in | rain 24hr in | rain mn in | humidity % | barometer mb |
| 20260831041024 | 74 | 0 | 0.0 | 0.0 | 0.00 | 0.04 | 0.00 | 95 | 1016.5 |
| 20260831040523 | 74 | 0 | 0.0 | 0.0 | 0.00 | 0.04 | 0.00 | 95 | 1016.8 |
| 20260831040044 | 74 | 0 | 0.0 | 0.0 | 0.00 | 0.04 | 0.00 | 95 | 1016.8 |
| 20260831035520 | 74 | 0 | 0.0 | 0.0 | 0.00 | 0.04 | 0.04 | 95 | 1016.8 |
| 20260831035020 | 75 | 0 | 0.0 | 0.0 | 0.00 | 0.04 | 0.04 | 95 | 1016.7 |
| 20260831034541 | 75 | 0 | 0.0 | 0.0 | 0.00 | 0.04 | 0.04 | 95 | 1016.8 |
| 20260831034023 | 75 | 0 | 0.0 | 0.0 | 0.00 | 0.04 | 0.04 | 95 | 1016.7 |
| 20260831033525 | 75 | 0 | 0.0 | 0.0 | 0.00 | 0.04 | 0.04 | 95 | 1016.8 |
| 20260831033043 | 75 | 0 | 0.0 | 0.0 | 0.00 | 0.04 | 0.04 | 95 | 1016.8 |
| 20260831032523 | 75 | 0 | 0.0 | 0.0 | 0.00 | 0.04 | 0.04 | 95 | 1016.7 |
| 20260831032023 | 75 | 0 | 0.0 | 0.0 | 0.00 | 0.04 | 0.04 | 95 | 1016.9 |
| 20260831031541 | 75 | 0 | 0.0 | 0.0 | 0.00 | 0.04 | 0.04 | 95 | 1016.7 |
| 20260831031020 | 75 | 0 | 0.0 | 0.0 | 0.00 | 0.04 | 0.04 | 95 | 1016.7 |
| 20260831030521 | 75 | 0 | 0.0 | 0.0 | 0.00 | 0.04 | 0.04 | 95 | 1016.8 |
| 20260831030042 | 75 | 0 | 0.0 | 0.0 | 0.00 | 0.04 | 0.04 | 95 | 1016.8 |
| 20260831025525 | 75 | 0 | 0.0 | 0.0 | 0.00 | 0.04 | 0.04 | 95 | 1016.9 |
| 20260831025023 | 75 | 0 | 0.0 | 0.0 | 0.00 | 0.04 | 0.04 | 94 | 1016.9 |
| 20260831024548 | 75 | 0 | 0.0 | 0.0 | 0.00 | 0.04 | 0.04 | 94 | 1016.9 |
| 20260831024024 | 75 | 0 | 0.0 | 0.0 | 0.00 | 0.04 | 0.04 | 94 | 1017.0 |
| 20260831023522 | 75 | 0 | 0.0 | 0.0 | 0.00 | 0.04 | 0.04 | 94 | 1016.9 |
| 20260831023041 | 76 | 0 | 0.0 | 0.0 | 0.00 | 0.04 | 0.04 | 94 | 1016.9 |
| 20260831022519 | 75 | 0 | 0.0 | 0.0 | 0.00 | 0.04 | 0.04 | 94 | 1017.0 |
| 20260831022018 | 76 | 0 | 0.0 | 0.0 | 0.00 | 0.04 | 0.04 | 94 | 1016.8 |
| 20260831021542 | 76 | 0 | 0.0 | 0.0 | 0.00 | 0.04 | 0.04 | 94 | 1016.8 |
| 20260831021018 | 76 | 0 | 0.0 | 0.9 | 0.00 | 0.04 | 0.04 | 94 | 1016.9 |
| 20260831020520 | 76 | 0 | 0.0 | 0.9 | 0.00 | 0.04 | 0.04 | 94 | 1017.0 |
| 20260831020041 | 76 | 0 | 0.0 | 0.9 | 0.00 | 0.04 | 0.04 | 93 | 1017.0 |
| 20260831015520 | 76 | 0 | 0.0 | 0.9 | 0.00 | 0.04 | 0.04 | 93 | 1016.9 |
| 20260831015021 | 76 | 0 | 0.0 | 0.0 | 0.00 | 0.04 | 0.04 | 93 | 1016.8 |
| 20260831014542 | 76 | 0 | 0.0 | 0.0 | 0.00 | 0.04 | 0.04 | 93 | 1016.9 |
| 20260831014020 | 76 | 0 | 0.0 | 2.6 | 0.00 | 0.04 | 0.04 | 93 | 1016.8 |
| 20260831013525 | 76 | 0 | 0.0 | 2.6 | 0.00 | 0.04 | 0.04 | 92 | 1016.8 |
| 20260831013043 | 76 | 0 | 0.0 | 2.6 | 0.00 | 0.04 | 0.04 | 92 | 1016.7 |
| 20260831012525 | 76 | 269 | 0.0 | 0.0 | 0.00 | 0.04 | 0.04 | 92 | 1016.7 |
| 20260831012023 | 76 | 0 | 0.0 | 0.0 | 0.00 | 0.04 | 0.04 | 92 | 1016.7 |
| 20260831011542 | 76 | 0 | 0.0 | 1.7 | 0.00 | 0.04 | 0.04 | 92 | 1016.6 |
| 20260831011024 | 76 | 0 | 0.0 | 2.6 | 0.00 | 0.04 | 0.04 | 92 | 1016.8 |
| 20260831010526 | 77 | 0 | 0.9 | 2.6 | 0.00 | 0.04 | 0.04 | 92 | 1016.7 |
| 20260831010046 | 77 | 269 | 0.9 | 2.6 | 0.00 | 0.04 | 0.04 | 92 | 1016.8 |
| 20260831005520 | 77 | 269 | 0.9 | 2.6 | 0.00 | 0.04 | 0.04 | 92 | 1016.7 |
| 20260831005023 | 77 | 269 | 1.7 | 2.6 | 0.00 | 0.04 | 0.04 | 92 | 1016.8 |
| 20260831004543 | 77 | 269 | 0.9 | 2.6 | 0.00 | 0.04 | 0.04 | 91 | 1016.7 |
| 20260831004024 | 77 | 259 | 0.0 | 2.6 | 0.00 | 0.04 | 0.04 | 91 | 1016.6 |
| 20260831003526 | 77 | 0 | 0.0 | 0.9 | 0.00 | 0.04 | 0.04 | 90 | 1016.6 |
| 20260831003041 | 78 | 0 | 0.0 | 1.7 | 0.00 | 0.04 | 0.04 | 89 | 1016.6 |
| 20260831002525 | 78 | 0 | 0.0 | 1.7 | 0.00 | 0.04 | 0.04 | 89 | 1016.4 |
| 20260831002025 | 78 | 82 | 0.0 | 2.6 | 0.00 | 0.04 | 0.04 | 89 | 1016.3 |
| 20260831001545 | 78 | 0 | 0.0 | 2.6 | 0.00 | 0.04 | 0.04 | 88 | 1016.4 |
| 20260831001023 | 78 | 32 | 0.0 | 2.6 | 0.00 | 0.04 | 0.04 | 89 | 1016.2 |
| 20260831000523 | 78 | 281 | 0.9 | 3.5 | 0.00 | 0.04 | 0.04 | 89 | 1016.4 |
| 20260831000044 | 78 | 264 | 0.9 | 3.5 | 0.00 | 0.04 | 0.04 | 88 | 1016.3 |
| 20260830235521 | 78 | 246 | 0.9 | 4.3 | 0.00 | 0.04 | 0.04 | 87 | 1016.3 |
| 20260830235029 | 79 | 337 | 0.9 | 4.3 | 0.00 | 0.04 | 0.04 | 86 | 1016.4 |
| 20260830234556 | 79 | 40 | 2.6 | 4.3 | 0.00 | 0.04 | 0.04 | 87 | 1016.3 |
| 20260830234024 | 79 | 92 | 1.7 | 3.5 | 0.00 | 0.04 | 0.04 | 87 | 1016.3 |
| 20260830233528 | 78 | 108 | 0.0 | 2.6 | 0.00 | 0.04 | 0.04 | 88 | 1016.2 |
| 20260830233048 | 78 | 0 | 0.0 | 0.0 | 0.00 | 0.04 | 0.04 | 89 | 1016.3 |
| 20260830232526 | 78 | 0 | 0.0 | 0.0 | 0.00 | 0.04 | 0.04 | 88 | 1016.3 |
| 20260830232025 | 79 | 0 | 0.0 | 0.0 | 0.00 | 0.04 | 0.04 | 88 | 1016.3 |
| 20260830231544 | 79 | 0 | 0.0 | 0.0 | 0.00 | 0.04 | 0.04 | 88 | 1016.2 |
| 20260830231021 | 79 | 0 | 0.0 | 0.0 | 0.00 | 0.04 | 0.04 | 88 | 1016.2 |
| 20260830230519 | 79 | 0 | 0.0 | 0.0 | 0.00 | 0.04 | 0.04 | 88 | 1016.2 |
| 20260830230046 | 80 | 0 | 0.0 | 0.0 | 0.00 | 0.04 | 0.04 | 87 | 1016.2 |
| 20260830225522 | 80 | 0 | 0.0 | 1.7 | 0.00 | 0.04 | 0.04 | 86 | 1016.3 |
| 20260830225024 | 80 | 0 | 0.0 | 1.7 | 0.00 | 0.04 | 0.04 | 85 | 1016.3 |
| 20260830224542 | 80 | 108 | 0.0 | 1.7 | 0.00 | 0.04 | 0.04 | 85 | 1016.4 |
| 20260830224025 | 80 | 119 | 0.0 | 2.6 | 0.00 | 0.04 | 0.04 | 85 | 1016.4 |
| 20260830223524 | 80 | 121 | 0.9 | 3.5 | 0.00 | 0.04 | 0.04 | 85 | 1016.3 |
| 20260830223045 | 80 | 98 | 0.9 | 3.5 | 0.00 | 0.04 | 0.04 | 84 | 1016.3 |
| 20260830222523 | 81 | 88 | 1.7 | 3.5 | 0.00 | 0.04 | 0.04 | 83 | 1016.1 |
| 20260830222025 | 81 | 51 | 1.7 | 3.5 | 0.00 | 0.04 | 0.04 | 83 | 1016.1 |
| 20260830221542 | 81 | 67 | 1.7 | 3.5 | 0.00 | 0.04 | 0.04 | 83 | 1016.2 |
| 20260830221018 | 81 | 113 | 0.9 | 4.3 | 0.00 | 0.04 | 0.04 | 83 | 1016.2 |
| 20260830220520 | 81 | 87 | 1.7 | 7.0 | 0.00 | 0.04 | 0.04 | 81 | 1016.0 |
| 20260830220044 | 81 | 60 | 2.6 | 9.6 | 0.00 | 0.04 | 0.04 | 81 | 1015.8 |
| 20260830215523 | 82 | 105 | 4.3 | 10.4 | 0.00 | 0.04 | 0.04 | 79 | 1015.8 |
| 20260830215028 | 82 | 61 | 6.1 | 10.4 | 0.00 | 0.04 | 0.04 | 78 | 1015.7 |
| 20260830214603 | 82 | 88 | 4.3 | 10.4 | 0.00 | 0.04 | 0.04 | 78 | 1015.7 |
| 20260830214024 | 82 | 100 | 5.2 | 10.4 | 0.00 | 0.04 | 0.04 | 78 | 1015.8 |
| 20260830213523 | 83 | 46 | 4.3 | 11.3 | 0.00 | 0.04 | 0.04 | 79 | 1015.8 |
| 20260830213045 | 83 | 86 | 6.1 | 11.3 | 0.00 | 0.04 | 0.04 | 79 | 1015.7 |
| 20260830212520 | 84 | 104 | 4.3 | 9.6 | 0.00 | 0.04 | 0.04 | 78 | 1015.6 |
| 20260830212020 | 84 | 58 | 3.5 | 10.4 | 0.00 | 0.04 | 0.04 | 77 | 1015.7 |
| 20260830211547 | 85 | 95 | 1.7 | 10.4 | 0.00 | 0.04 | 0.04 | 78 | 1015.6 |
| 20260830211025 | 86 | 82 | 5.2 | 10.4 | 0.00 | 0.04 | 0.04 | 74 | 1015.4 |
| 20260830210525 | 87 | 63 | 6.1 | 10.4 | 0.00 | 0.04 | 0.04 | 72 | 1015.2 |
| 20260830210048 | 87 | 117 | 4.3 | 10.4 | 0.00 | 0.04 | 0.04 | 73 | 1015.1 |
| 20260830205525 | 87 | 111 | 3.5 | 10.4 | 0.00 | 0.04 | 0.04 | 77 | 1015.1 |
| 20260830205021 | 85 | 95 | 4.3 | 10.4 | 0.00 | 0.04 | 0.04 | 78 | 1015.1 |
| 20260830204543 | 86 | 88 | 6.1 | 10.4 | 0.00 | 0.04 | 0.04 | 77 | 1015.1 |
| 20260830204023 | 86 | 127 | 5.2 | 10.4 | 0.00 | 0.04 | 0.04 | 78 | 1015.1 |
| 20260830203519 | 85 | 92 | 6.1 | 13.0 | 0.00 | 0.04 | 0.04 | 79 | 1015.0 |
| 20260830203049 | 85 | 50 | 7.0 | 13.0 | 0.00 | 0.04 | 0.04 | 79 | 1014.9 |
| 20260830202521 | 85 | 45 | 8.7 | 15.6 | 0.00 | 0.04 | 0.04 | 79 | 1015.0 |
| 20260830202020 | 86 | 83 | 7.0 | 15.6 | 0.00 | 0.04 | 0.04 | 79 | 1015.0 |
| 20260830201544 | 85 | 103 | 8.7 | 15.6 | 0.00 | 0.04 | 0.04 | 80 | 1015.1 |
| 20260830201025 | 87 | 134 | 9.6 | 15.6 | 0.00 | 0.04 | 0.04 | 76 | 1015.4 |
| 20260830200524 | 89 | 77 | 6.1 | 11.3 | 0.00 | 0.04 | 0.04 | 73 | 1015.2 |
| 20260830200039 | 89 | 105 | 3.5 | 7.8 | 0.00 | 0.04 | 0.04 | 76 | 1015.2 |
| 20260830195525 | 89 | 136 | 3.5 | 8.7 | 0.01 | 0.04 | 0.04 | 76 | 1015.2 |
| 20260830195023 | 89 | 150 | 5.2 | 8.7 | 0.02 | 0.04 | 0.04 | 78 | 1015.2 |
| 20260830194544 | 88 | 53 | 2.6 | 5.2 | 0.04 | 0.04 | 0.04 | 73 | 1015.3 |
| 20260830194024 | 89 | 115 | 1.7 | 5.2 | 0.04 | 0.04 | 0.04 | 80 | 1015.4 |
| 20260830193519 | 88 | 107 | 0.0 | 4.3 | 0.04 | 0.04 | 0.04 | 80 | 1015.5 |
| 20260830193104 | 88 | 205 | 1.7 | 4.3 | 0.04 | 0.04 | 0.04 | 78 | 1015.5 |
| 20260830192526 | 89 | 163 | 0.0 | 4.3 | 0.04 | 0.04 | 0.04 | 80 | 1015.6 |
| 20260830192024 | 88 | 260 | 1.7 | 4.3 | 0.04 | 0.04 | 0.04 | 81 | 1015.6 |
| 20260830191549 | 88 | 109 | 0.9 | 3.5 | 0.04 | 0.04 | 0.04 | 81 | 1015.7 |
| 20260830191025 | 86 | 132 | 0.0 | 3.5 | 0.04 | 0.04 | 0.04 | 83 | 1015.7 |
| 20260830190521 | 84 | 0 | 0.0 | 1.7 | 0.04 | 0.04 | 0.04 | 87 | 1015.7 |
| 20260830190044 | 83 | 0 | 0.0 | 7.0 | 0.04 | 0.04 | 0.04 | 91 | 1015.9 |
| 20260830185524 | 82 | 309 | 0.0 | 8.7 | 0.03 | 0.03 | 0.03 | 85 | 1016.0 |
| 20260830185018 | 86 | 121 | 4.3 | 8.7 | 0.01 | 0.01 | 0.01 | 83 | 1016.2 |
| 20260830184542 | 87 | 76 | 4.3 | 8.7 | 0.00 | 0.00 | 0.00 | 75 | 1016.2 |
| 20260830184024 | 87 | 121 | 2.6 | 8.7 | 0.00 | 0.00 | 0.00 | 74 | 1016.2 |
| 20260830183526 | 89 | 81 | 4.3 | 8.7 | 0.00 | 0.00 | 0.00 | 70 | 1016.2 |
| 20260830183040 | 90 | 128 | 2.6 | 8.7 | 0.00 | 0.00 | 0.00 | 69 | 1016.2 |
| 20260830182526 | 89 | 131 | 3.5 | 6.1 | 0.00 | 0.00 | 0.00 | 70 | 1016.3 |
| 20260830182024 | 88 | 84 | 2.6 | 6.1 | 0.00 | 0.00 | 0.00 | 72 | 1016.3 |
| 20260830181543 | 90 | 92 | 1.7 | 6.1 | 0.00 | 0.00 | 0.00 | 69 | 1016.3 |
| 20260830181023 | 91 | 113 | 2.6 | 7.8 | 0.00 | 0.00 | 0.00 | 73 | 1016.4 |
| 20260830180521 | 90 | 115 | 2.6 | 7.8 | 0.00 | 0.00 | 0.00 | 70 | 1016.5 |
| 20260830180046 | 90 | 84 | 4.3 | 7.8 | 0.00 | 0.00 | 0.00 | 72 | 1016.5 |
| 20260830175518 | 90 | 87 | 4.3 | 9.6 | 0.00 | 0.00 | 0.00 | 71 | 1016.6 |
| 20260830175020 | 90 | 107 | 3.5 | 9.6 | 0.00 | 0.00 | 0.00 | 73 | 1016.6 |
| 20260830174549 | 89 | 83 | 2.6 | 8.7 | 0.00 | 0.00 | 0.00 | 70 | 1016.7 |
| 20260830174026 | 89 | 91 | 4.3 | 9.6 | 0.00 | 0.00 | 0.00 | 71 | 1016.8 |
| 20260830173523 | 88 | 66 | 5.2 | 9.6 | 0.00 | 0.00 | 0.00 | 73 | 1016.9 |
| 20260830173102 | 89 | 48 | 6.1 | 9.6 | 0.00 | 0.00 | 0.00 | 72 | 1017.0 |
| 20260830172530 | 89 | 76 | 3.5 | 9.6 | 0.00 | 0.00 | 0.00 | 74 | 1017.0 |
| 20260830172023 | 89 | 90 | 3.5 | 9.6 | 0.00 | 0.00 | 0.00 | 72 | 1016.9 |
| 20260830171544 | 89 | 77 | 3.5 | 8.7 | 0.00 | 0.00 | 0.00 | 74 | 1017.1 |
| 20260830171023 | 87 | 34 | 2.6 | 7.0 | 0.00 | 0.00 | 0.00 | 74 | 1017.1 |
| 20260830170524 | 87 | 61 | 3.5 | 7.0 | 0.00 | 0.00 | 0.00 | 78 | 1017.1 |
| 20260830170041 | 88 | 98 | 2.6 | 6.1 | 0.00 | 0.00 | 0.00 | 75 | 1017.2 |
| 20260830165526 | 87 | 73 | 1.7 | 7.0 | 0.00 | 0.00 | 0.00 | 81 | 1017.1 |
| 20260830165024 | 88 | 86 | 3.5 | 7.8 | 0.00 | 0.00 | 0.00 | 74 | 1017.3 |
| 20260830164541 | 88 | 90 | 1.7 | 7.8 | 0.00 | 0.00 | 0.00 | 78 | 1017.3 |
| 20260830164027 | 87 | 93 | 1.7 | 7.0 | 0.00 | 0.00 | 0.00 | 78 | 1017.3 |
| 20260830163526 | 85 | 0 | 0.0 | 7.0 | 0.00 | 0.00 | 0.00 | 80 | 1017.4 |
| 20260830163046 | 87 | 141 | 2.6 | 7.0 | 0.00 | 0.00 | 0.00 | 79 | 1017.4 |
| 20260830162523 | 85 | 129 | 0.0 | 2.6 | 0.00 | 0.00 | 0.00 | 78 | 1017.5 |
| 20260830162022 | 87 | 331 | 0.9 | 7.0 | 0.00 | 0.00 | 0.00 | 82 | 1017.5 |
| 20260830161541 | 86 | 229 | 0.9 | 7.0 | 0.00 | 0.00 | 0.00 | 79 | 1017.5 |
| 20260830161021 | 86 | 92 | 3.5 | 8.7 | 0.00 | 0.00 | 0.00 | 79 | 1017.6 |
| 20260830160521 | 86 | 89 | 3.5 | 8.7 | 0.00 | 0.00 | 0.00 | 79 | 1017.7 |
| 20260830160043 | 85 | 43 | 3.5 | 7.0 | 0.00 | 0.00 | 0.00 | 79 | 1017.7 |
| 20260830155525 | 85 | 71 | 2.6 | 7.0 | 0.00 | 0.00 | 0.00 | 81 | 1017.8 |
| 20260830155025 | 85 | 66 | 2.6 | 6.1 | 0.00 | 0.00 | 0.00 | 84 | 1017.8 |
| 20260830154540 | 83 | 86 | 0.9 | 7.0 | 0.00 | 0.00 | 0.00 | 85 | 1017.9 |
| 20260830154025 | 84 | 86 | 2.6 | 7.8 | 0.00 | 0.00 | 0.00 | 82 | 1017.9 |
| 20260830153525 | 85 | 63 | 1.7 | 7.8 | 0.00 | 0.00 | 0.00 | 80 | 1018.1 |
| 20260830153047 | 86 | 9 | 4.3 | 7.8 | 0.00 | 0.00 | 0.00 | 79 | 1018.0 |
| 20260830152523 | 85 | 88 | 1.7 | 6.1 | 0.00 | 0.00 | 0.00 | 84 | 1018.1 |
| 20260830152023 | 84 | 65 | 1.7 | 6.1 | 0.00 | 0.00 | 0.00 | 86 | 1018.2 |
| 20260830151544 | 84 | 0 | 0.9 | 8.7 | 0.00 | 0.00 | 0.00 | 85 | 1018.3 |
| 20260830151021 | 84 | 42 | 2.6 | 8.7 | 0.00 | 0.00 | 0.00 | 84 | 1018.3 |
| 20260830150525 | 85 | 46 | 3.5 | 7.0 | 0.00 | 0.00 | 0.00 | 85 | 1018.4 |
| 20260830150054 | 83 | 52 | 0.9 | 7.8 | 0.00 | 0.00 | 0.00 | 85 | 1018.4 |
| 20260830145524 | 83 | 86 | 4.3 | 7.8 | 0.00 | 0.00 | 0.00 | 83 | 1018.3 |
| 20260830145024 | 84 | 45 | 2.6 | 8.7 | 0.00 | 0.00 | 0.00 | 84 | 1018.4 |
| 20260830144543 | 83 | 64 | 3.5 | 8.7 | 0.00 | 0.00 | 0.00 | 85 | 1018.5 |
| 20260830144026 | 83 | 35 | 1.7 | 4.3 | 0.00 | 0.00 | 0.00 | 86 | 1018.4 |
| 20260830143523 | 82 | 67 | 2.6 | 5.2 | 0.00 | 0.00 | 0.00 | 86 | 1018.6 |
| 20260830143044 | 82 | 92 | 1.7 | 7.8 | 0.00 | 0.00 | 0.00 | 87 | 1018.5 |
| 20260830142526 | 83 | 105 | 1.7 | 7.8 | 0.00 | 0.00 | 0.00 | 87 | 1018.5 |
| 20260830142027 | 83 | 58 | 2.6 | 7.8 | 0.00 | 0.00 | 0.00 | 88 | 1018.4 |
| 20260830141541 | 82 | 83 | 1.7 | 6.1 | 0.00 | 0.00 | 0.00 | 87 | 1018.4 |
| 20260830141026 | 82 | 111 | 2.6 | 6.1 | 0.00 | 0.00 | 0.00 | 87 | 1018.4 |
| 20260830140528 | 82 | 81 | 0.9 | 5.2 | 0.00 | 0.00 | 0.00 | 88 | 1018.3 |
| 20260830140048 | 82 | 74 | 1.7 | 5.2 | 0.00 | 0.00 | 0.00 | 88 | 1018.4 |
| 20260830135523 | 82 | 43 | 1.7 | 4.3 | 0.00 | 0.00 | 0.00 | 88 | 1018.3 |
| 20260830135024 | 81 | 0 | 0.0 | 4.3 | 0.00 | 0.00 | 0.00 | 89 | 1018.4 |
| 20260830134546 | 81 | 78 | 1.7 | 5.2 | 0.00 | 0.00 | 0.00 | 89 | 1018.4 |
| 20260830134021 | 81 | 0 | 0.9 | 5.2 | 0.00 | 0.00 | 0.00 | 90 | 1018.3 |
| 20260830133521 | 80 | 41 | 1.7 | 5.2 | 0.00 | 0.00 | 0.00 | 89 | 1018.3 |
| 20260830133058 | 80 | 60 | 2.6 | 4.3 | 0.00 | 0.00 | 0.00 | 90 | 1018.3 |
| 20260830132524 | 80 | 83 | 0.9 | 3.5 | 0.00 | 0.00 | 0.00 | 91 | 1018.3 |
| 20260830132024 | 79 | 69 | 1.7 | 3.5 | 0.00 | 0.00 | 0.00 | 92 | 1018.3 |
| 20260830131549 | 79 | 73 | 0.9 | 4.3 | 0.00 | 0.00 | 0.00 | 93 | 1018.2 |
| 20260830131024 | 78 | 53 | 1.7 | 4.3 | 0.00 | 0.00 | 0.00 | 94 | 1018.2 |
| 20260830130524 | 78 | 20 | 0.0 | 4.3 | 0.00 | 0.00 | 0.00 | 95 | 1018.3 |
| 20260830130043 | 77 | 44 | 2.6 | 4.3 | 0.00 | 0.00 | 0.00 | 96 | 1018.2 |
| 20260830125522 | 77 | 51 | 1.7 | 4.3 | 0.00 | 0.00 | 0.00 | 96 | 1018.2 |
| 20260830125026 | 76 | 53 | 1.7 | 4.3 | 0.00 | 0.00 | 0.00 | 97 | 1018.0 |
| 20260830124551 | 76 | 29 | 0.0 | 3.5 | 0.00 | 0.00 | 0.00 | 97 | 1018.1 |
| 20260830124028 | 76 | 0 | 0.9 | 3.5 | 0.00 | 0.00 | 0.00 | 97 | 1018.0 |
| 20260830123524 | 76 | 52 | 0.9 | 3.5 | 0.00 | 0.00 | 0.00 | 97 | 1018.0 |
| 20260830123042 | 75 | 0 | 0.0 | 0.0 | 0.00 | 0.00 | 0.00 | 97 | 1018.1 |
| 20260830122523 | 74 | 0 | 0.0 | 0.0 | 0.00 | 0.00 | 0.00 | 97 | 1018.0 |
| 20260830122023 | 74 | 0 | 0.0 | 0.0 | 0.00 | 0.00 | 0.00 | 97 | 1017.7 |
| 20260830121542 | 74 | 0 | 0.0 | 0.0 | 0.00 | 0.00 | 0.00 | 97 | 1017.6 |
| 20260830121022 | 74 | 0 | 0.0 | 0.0 | 0.00 | 0.00 | 0.00 | 97 | 1017.6 |
| 20260830120523 | 73 | 0 | 0.0 | 0.0 | 0.00 | 0.00 | 0.00 | 97 | 1017.5 |
| 20260830120044 | 73 | 0 | 0.0 | 0.0 | 0.00 | 0.00 | 0.00 | 97 | 1017.4 |
| 20260830115518 | 72 | 0 | 0.0 | 0.0 | 0.00 | 0.00 | 0.00 | 97 | 1017.5 |
| 20260830115024 | 72 | 0 | 0.0 | 0.0 | 0.00 | 0.00 | 0.00 | 97 | 1017.4 |
| 20260830114608 | 72 | 0 | 0.0 | 0.0 | 0.00 | 0.00 | 0.00 | 97 | 1017.2 |
| 20260830114025 | 71 | 0 | 0.0 | 0.0 | 0.00 | 0.00 | 0.00 | 97 | 1017.2 |
| 20260830113523 | 71 | 0 | 0.0 | 0.0 | 0.00 | 0.00 | 0.00 | 96 | 1017.1 |
| 20260830113042 | 71 | 0 | 0.0 | 0.0 | 0.00 | 0.00 | 0.00 | 96 | 1017.0 |
| 20260830112524 | 71 | 0 | 0.0 | 0.0 | 0.00 | 0.00 | 0.00 | 97 | 1017.0 |
| 20260830112023 | 71 | 0 | 0.0 | 0.0 | 0.00 | 0.00 | 0.00 | 97 | 1016.9 |
| 20260830111542 | 71 | 0 | 0.0 | 0.0 | 0.00 | 0.00 | 0.00 | 96 | 1016.9 |
| 20260830111019 | 71 | 0 | 0.0 | 0.0 | 0.00 | 0.00 | 0.00 | 96 | 1016.8 |
| 20260830110519 | 71 | 0 | 0.0 | 0.0 | 0.00 | 0.00 | 0.00 | 97 | 1016.8 |
| 20260830110051 | 71 | 0 | 0.0 | 0.0 | 0.00 | 0.00 | 0.00 | 97 | 1016.8 |
| 20260830105528 | 71 | 0 | 0.0 | 0.0 | 0.00 | 0.00 | 0.00 | 96 | 1016.8 |
| 20260830105025 | 71 | 0 | 0.0 | 0.0 | 0.00 | 0.00 | 0.00 | 97 | 1016.7 |
| 20260830104549 | 71 | 0 | 0.0 | 0.0 | 0.00 | 0.00 | 0.00 | 97 | 1016.6 |
| 20260830104028 | 71 | 0 | 0.0 | 0.0 | 0.00 | 0.00 | 0.00 | 97 | 1016.5 |
| 20260830103523 | 71 | 0 | 0.0 | 0.0 | 0.00 | 0.00 | 0.00 | 96 | 1016.5 |
| 20260830103050 | 71 | 0 | 0.0 | 0.0 | 0.00 | 0.00 | 0.00 | 96 | 1016.4 |
| 20260830102524 | 71 | 0 | 0.0 | 0.0 | 0.00 | 0.00 | 0.00 | 96 | 1016.5 |
| 20260830102019 | 71 | 0 | 0.0 | 0.0 | 0.00 | 0.00 | 0.00 | 96 | 1016.5 |
| 20260830101540 | 71 | 0 | 0.0 | 0.0 | 0.00 | 0.00 | 0.00 | 96 | 1016.4 |
| 20260830101024 | 71 | 0 | 0.0 | 0.0 | 0.00 | 0.00 | 0.00 | 96 | 1016.4 |
| 20260830100525 | 71 | 0 | 0.0 | 0.0 | 0.00 | 0.00 | 0.00 | 96 | 1016.3 |
| 20260830100051 | 71 | 0 | 0.0 | 0.0 | 0.00 | 0.00 | 0.00 | 96 | 1016.2 |
| 20260830095525 | 71 | 0 | 0.0 | 0.0 | 0.00 | 0.00 | 0.00 | 96 | 1016.2 |
| 20260830095022 | 71 | 0 | 0.0 | 0.0 | 0.00 | 0.00 | 0.00 | 96 | 1016.2 |
| 20260830094543 | 71 | 0 | 0.0 | 0.0 | 0.00 | 0.00 | 0.00 | 96 | 1016.2 |
| 20260830094023 | 71 | 0 | 0.0 | 0.0 | 0.00 | 0.00 | 0.00 | 96 | 1016.1 |
| 20260830093521 | 71 | 0 | 0.0 | 0.0 | 0.00 | 0.00 | 0.00 | 96 | 1016.1 |
| 20260830093053 | 71 | 0 | 0.0 | 0.0 | 0.00 | 0.00 | 0.00 | 96 | 1016.0 |
| 20260830092521 | 71 | 0 | 0.0 | 0.0 | 0.00 | 0.00 | 0.00 | 96 | 1016.1 |
| 20260830092021 | 71 | 0 | 0.0 | 0.0 | 0.00 | 0.00 | 0.00 | 96 | 1016.1 |
| 20260830091549 | 71 | 0 | 0.0 | 0.0 | 0.00 | 0.00 | 0.00 | 96 | 1016.1 |
| 20260830091025 | 71 | 0 | 0.0 | 0.0 | 0.00 | 0.00 | 0.00 | 96 | 1016.1 |
| 20260830090528 | 71 | 0 | 0.0 | 0.0 | 0.00 | 0.00 | 0.00 | 96 | 1016.2 |
| 20260830090042 | 71 | 0 | 0.0 | 0.0 | 0.00 | 0.00 | 0.00 | 96 | 1016.1 |
| 20260830085522 | 71 | 0 | 0.0 | 0.0 | 0.00 | 0.00 | 0.00 | 96 | 1016.2 |
| 20260830085018 | 71 | 0 | 0.0 | 0.0 | 0.00 | 0.00 | 0.00 | 96 | 1016.3 |
| 20260830084543 | 72 | 0 | 0.0 | 0.0 | 0.00 | 0.00 | 0.00 | 96 | 1016.3 |
| 20260830084021 | 72 | 0 | 0.0 | 0.0 | 0.00 | 0.00 | 0.00 | 96 | 1016.3 |
| 20260830083525 | 72 | 0 | 0.0 | 0.0 | 0.00 | 0.00 | 0.00 | 96 | 1016.3 |
| 20260830083040 | 72 | 0 | 0.0 | 0.9 | 0.00 | 0.00 | 0.00 | 96 | 1016.4 |
| 20260830082526 | 72 | 0 | 0.0 | 1.7 | 0.00 | 0.00 | 0.00 | 96 | 1016.4 |
| 20260830082023 | 72 | 0 | 0.0 | 1.7 | 0.00 | 0.00 | 0.00 | 96 | 1016.5 |
| 20260830081543 | 72 | 46 | 0.0 | 1.7 | 0.00 | 0.00 | 0.00 | 96 | 1016.6 |
| 20260830081023 | 72 | 0 | 0.0 | 0.0 | 0.00 | 0.00 | 0.00 | 96 | 1016.7 |
| 20260830080524 | 72 | 0 | 0.0 | 0.0 | 0.00 | 0.00 | 0.00 | 96 | 1016.7 |
| 20260830080045 | 72 | 0 | 0.0 | 2.6 | 0.00 | 0.00 | 0.00 | 96 | 1016.6 |
| 20260830075523 | 72 | 0 | 0.0 | 2.6 | 0.00 | 0.00 | 0.00 | 96 | 1016.6 |
| 20260830075025 | 72 | 55 | 0.0 | 1.7 | 0.00 | 0.00 | 0.00 | 96 | 1016.7 |
| 20260830074542 | 72 | 0 | 0.0 | 1.7 | 0.00 | 0.00 | 0.00 | 96 | 1016.6 |
| 20260830074026 | 72 | 71 | 0.9 | 1.7 | 0.00 | 0.00 | 0.00 | 96 | 1016.8 |
| 20260830073525 | 72 | 74 | 0.0 | 2.6 | 0.00 | 0.00 | 0.00 | 96 | 1016.8 |
| 20260830073045 | 72 | 0 | 0.0 | 2.6 | 0.00 | 0.00 | 0.00 | 96 | 1016.7 |
| 20260830072523 | 72 | 74 | 0.9 | 2.6 | 0.00 | 0.00 | 0.00 | 96 | 1016.7 |
| 20260830072020 | 72 | 88 | 0.9 | 1.7 | 0.00 | 0.00 | 0.00 | 96 | 1016.7 |
| 20260830071612 | 72 | 0 | 0.0 | 0.9 | 0.00 | 0.00 | 0.00 | 96 | 1016.7 |
| 20260830071019 | 72 | 0 | 0.0 | 1.7 | 0.00 | 0.00 | 0.00 | 96 | 1016.7 |
| 20260830070522 | 72 | 0 | 0.0 | 1.7 | 0.00 | 0.00 | 0.00 | 96 | 1016.8 |
| 20260830070042 | 72 | 49 | 0.0 | 2.6 | 0.00 | 0.00 | 0.00 | 96 | 1016.7 |
| 20260830065524 | 72 | 49 | 0.9 | 2.6 | 0.00 | 0.00 | 0.00 | 96 | 1016.8 |
| 20260830065028 | 72 | 46 | 0.9 | 2.6 | 0.00 | 0.00 | 0.00 | 96 | 1016.9 |
| 20260830064549 | 72 | 41 | 0.9 | 2.6 | 0.00 | 0.00 | 0.00 | 95 | 1017.0 |
| 20260830064025 | 72 | 0 | 0.0 | 0.0 | 0.00 | 0.00 | 0.00 | 96 | 1016.8 |
| 20260830063524 | 72 | 0 | 0.0 | 0.0 | 0.00 | 0.00 | 0.00 | 95 | 1016.9 |
| 20260830063046 | 72 | 0 | 0.0 | 0.0 | 0.00 | 0.00 | 0.00 | 95 | 1017.0 |
| 20260830062523 | 72 | 0 | 0.0 | 0.0 | 0.00 | 0.00 | 0.00 | 95 | 1016.9 |
| 20260830062022 | 72 | 0 | 0.0 | 0.0 | 0.00 | 0.00 | 0.00 | 95 | 1016.9 |
| 20260830061542 | 72 | 0 | 0.0 | 0.0 | 0.00 | 0.00 | 0.00 | 95 | 1016.9 |
| 20260830061023 | 73 | 0 | 0.0 | 0.0 | 0.00 | 0.00 | 0.00 | 95 | 1016.8 |
| 20260830060521 | 73 | 0 | 0.0 | 0.0 | 0.00 | 0.00 | 0.00 | 95 | 1016.9 |
| 20260830060045 | 73 | 0 | 0.0 | 0.0 | 0.00 | 0.00 | 0.00 | 95 | 1016.9 |
| 20260830055521 | 73 | 0 | 0.0 | 0.0 | 0.00 | 0.00 | 0.00 | 95 | 1017.0 |
| 20260830055022 | 72 | 0 | 0.0 | 0.0 | 0.00 | 0.00 | 0.00 | 95 | 1017.1 |
| 20260830054549 | 73 | 0 | 0.0 | 0.0 | 0.00 | 0.00 | 0.00 | 95 | 1017.3 |
| 20260830054027 | 73 | 0 | 0.0 | 0.0 | 0.00 | 0.00 | 0.00 | 95 | 1017.3 |
| 20260830053524 | 73 | 0 | 0.0 | 0.0 | 0.00 | 0.00 | 0.00 | 95 | 1017.2 |
| 20260830053043 | 73 | 0 | 0.0 | 0.0 | 0.00 | 0.00 | 0.00 | 95 | 1017.3 |
| 20260830052523 | 73 | 0 | 0.0 | 0.0 | 0.00 | 0.00 | 0.00 | 95 | 1017.3 |
| 20260830052019 | 73 | 0 | 0.0 | 0.0 | 0.00 | 0.00 | 0.00 | 95 | 1017.2 |
| 20260830051547 | 73 | 0 | 0.0 | 0.0 | 0.00 | 0.00 | 0.00 | 95 | 1017.1 |
| 20260830051028 | 73 | 0 | 0.0 | 0.0 | 0.00 | 0.00 | 0.00 | 94 | 1017.1 |
| 20260830050525 | 73 | 0 | 0.0 | 0.0 | 0.00 | 0.00 | 0.00 | 94 | 1017.2 |
| 20260830050043 | 73 | 0 | 0.0 | 0.0 | 0.00 | 0.00 | 0.00 | 94 | 1017.3 |
| 20260830045523 | 73 | 0 | 0.0 | 0.0 | 0.00 | 0.00 | 0.00 | 94 | 1017.4 |
| 20260830045023 | 73 | 0 | 0.0 | 0.0 | 0.00 | 0.00 | 0.00 | 94 | 1017.3 |
| 20260830044614 | 73 | 0 | 0.0 | 0.0 | 0.00 | 0.00 | 0.00 | 94 | 1017.3 |
| 20260830044026 | 73 | 0 | 0.0 | 0.0 | 0.00 | 0.00 | 0.00 | 94 | 1017.3 |
| 20260830043523 | 73 | 0 | 0.0 | 0.0 | 0.00 | 0.00 | 0.00 | 94 | 1017.3 |
| 20260830043043 | 73 | 0 | 0.0 | 0.0 | 0.00 | 0.00 | 0.00 | 94 | 1017.3 |
| 20260830042525 | 73 | 0 | 0.0 | 1.7 | 0.00 | 0.00 | 0.00 | 94 | 1017.3 |
| 20260830042026 | 73 | 0 | 0.0 | 1.7 | 0.00 | 0.00 | 0.00 | 94 | 1017.3 |
| 20260830041555 | 73 | 266 | 0.0 | 0.9 | 0.00 | 0.00 | 0.00 | 94 | 1017.3 |